Погода в Верхней Полтавке

Россия / Амурская область     49°53′59″N   128°12′15″E
темп.,
°C
ветер,
м/с
пор.,
м/с
влажн.,
%
обл.,
%
осадки,
мм/ч
давл.,
гПа
погр.,
м
8 марта, пн
пн800:00−15зюз229820 0.0 102720
03:00−16юз229524 0.0 102720
06:00−17ю34975 0.0 102648
09:00−13ю59886 0.0 1025213
12:00−8ю59900 0.0 1021387
15:00−2ю5108510 0.0 1017663
18:00−3ю5118867 0.0 1014353
21:00−3ююз7158783 0.0 1011520
9 марта, вт
вт900:00−4юз51683100 0.0 1008490
03:00−6зюз51084100 0.0 1006200
06:00−7з489070 0.0 1005148
09:00−5ссз7129482 0.4 1008713
12:00−7ссз91580100 0.4 1012935
15:00−3ссз8157772 0.4 10161269
18:00−5сз7157631 0.0 1019630
21:00−8сз5148015 0.0 1023338
10 марта, ср
ср1000:00−11зсз46850 0.0 102590
03:00−12з33800 0.0 102621
06:00−12ююз447825 0.0 102552
09:00−9ююз6128060 0.0 1023287
12:00−3ююз81373100 0.0 1020873
15:00−2юз81275100 0.0 10161043
18:00−2зюз3783100 0.0 1017162
21:00−6з458550 0.0 101972
11 марта, чт
чт1100:00−7сз5128630 0.0 1022244
03:00−9сз478916 0.0 1025118
06:00−11сз47890 0.0 1027115
09:00−11сз37880 0.0 1030209
12:00−8зсз23800 0.0 1030256
15:00−5юз22762 0.0 1029269
18:00−8ю34810 0.0 102844
21:00−9ююз34861 0.0 102937
12 марта, пт
пт1200:00−9ююз34810 0.0 102940
03:00−10ююз338217 0.0 102922
06:00−10юз22840 0.0 103021
09:00−8ююз34890 0.0 1029116
12:00−3ююз47880 0.0 1028284
15:00+1ююз510860 0.0 1025348
18:000юз510770 0.0 1024188
21:00−3юз410770 0.0 1024180